This is the latest recevied weather packets stored in our database for station/object KK4XZ. If no packets are shown the sender has not sent any weather packets the latest 10 day(s).
| Time | Temp. | Humidity | Pressure | Rain* | Wind** | Luminosity | Snow |
|---|---|---|---|---|---|---|---|
| 1777657521 | 18.33° C | 72% | 1014.1 hPa | 0 mm | - | - | - |
| 1777656936 | 18.33° C | 72% | 1013.6 hPa | 0 mm | - | - | - |
| 1777656331 | 18.33° C | 71% | 1013.7 hPa | 0 mm | - | - | - |
| 1777655726 | 18.33° C | 72% | 1013.6 hPa | 0 mm | - | - | - |
| 1777655121 | 18.33° C | 73% | 1013.9 hPa | 0 mm | - | - | - |
| 1777654536 | 18.33° C | 73% | 1014 hPa | 0 mm | - | - | - |
| 1777653931 | 18.33° C | 74% | 1014 hPa | 0 mm | - | - | - |
| 1777653327 | 18.33° C | 74% | 1014.2 hPa | 0 mm | - | - | - |
| 1777652722 | 17.78° C | 75% | 1014.2 hPa | 0 mm | - | - | - |
| 1777652117 | 18.33° C | 75% | 1014.3 hPa | 0 mm | - | - | - |
| 1777651532 | 18.33° C | 75% | 1014.5 hPa | 0 mm | - | - | - |
| 1777650927 | 18.33° C | 75% | 1014.7 hPa | 0 mm | - | - | - |
| 1777650322 | 17.78° C | 74% | 1014.9 hPa | 0 mm | - | - | - |
| 1777649717 | 17.78° C | 74% | 1014.9 hPa | 0 mm | - | - | - |
| 1777649132 | 17.78° C | 74% | 1014.9 hPa | 0 mm | - | - | - |
| 1777648527 | 17.78° C | 73% | 1014.9 hPa | 0 mm | - | - | - |
| 1777647923 | 17.22° C | 73% | 1014.6 hPa | 0 mm | - | - | - |
| 1777647318 | 16.67° C | 74% | 1014.6 hPa | 0 mm | - | - | - |
| 1777646733 | 16.67° C | 73% | 1014.5 hPa | 0 mm | - | - | - |
| 1777646128 | 16.11° C | 73% | 1014.5 hPa | 0 mm | - | - | - |
| 1777645524 | 15.56° C | 74% | 1014.3 hPa | 0 mm | - | - | - |
| 1777644919 | 15° C | 74% | 1014.2 hPa | 0 mm | - | - | - |
| 1777644334 | 15° C | 73% | 1014 hPa | 0 mm | - | - | - |
| 1777643729 | 15° C | 73% | 1014 hPa | 0 mm | - | - | - |
| 1777643124 | 14.44° C | 72% | 1014 hPa | 0 mm | - | - | - |
* Rain latest hour (hover to see other rain measurements)
** Current wind speed in m/s (hover to see current wind gust speed)